Temperature
25 23 23 24 24 25 25 24 24 24 25 24 23 23 22 22 22 22 21 21 21 22 22 22 22 21 21 21 20 20 20 20 20 19 19 19 19 19 19 19 19 19 18 18
23 24 25 25 25 25 24 24 24 24 25 24 23 23 22 22 22 22 22 22 22 22 22 22 22 21 21 21 21 20 20 20 20 20 20 19 19 19 19 19 19 19 18 18
25 25 26 26 25 25 24 24 24 24 24 24 24 23 22 22 22 22 22 22 22 22 22 22 22 22 22 21 21 21 21 20 20 20 20 19 19 19 19 19 19 19 18 18
24 25 26 26 25 25 24 25 25 24 23 22 23 22 22 21 21 21 22 22 22 22 23 23 22 22 22 22 21 21 21 21 20 20 20 19 19 19 19 19 19 19 19 18
24 25 25 26 26 25 25 25 24 23 22 21 22 22 21 21 21 21 21 22 23 23 23 23 23 23 22 22 22 21 21 21 20 20 20 19 19 20 19 19 19 19 18 18
24 25 25 26 26 26 25 23 22 20 20 21 21 21 21 20 21 21 22 22 23 23 23 23 23 22 22 22 21 21 21 21 20 20 20 20 19 19 19 19 19 19 19 18
24 25 25 25 25 25 24 22 21 22 20 21 21 21 21 21 21 21 22 22 23 23 23 23 22 22 22 22 22 21 21 21 20 20 20 20 20 19 19 19 19 19 19 18
23 24 25 25 25 24 23 22 22 22 21 20 20 20 21 21 21 22 22 22 22 22 22 23 23 23 22 22 22 21 21 21 20 20 20 20 20 19 19 19 19 19 19 19
22 23 24 25 25 24 23 21 21 20 20 20 20 20 21 21 21 20 21 21 21 22 22 23 23 22 22 22 22 22 21 21 21 20 20 20 20 19 19 19 19 19 18 18
22 23 23 24 24 23 22 19 18 19 20 21 21 21 20 21 20 20 19 20 21 21 22 22 22 22 22 22 22 21 21 21 21 21 20 20 20 20 19 19 19 19 18 18
21 22 23 23 23 23 21 20 18 17 19 20 20 21 21 20 20 19 19 20 20 21 21 22 22 22 22 22 21 21 21 21 21 20 20 20 20 19 19 19 19 18 18 18
20 19 20 22 22 22 22 21 18 20 19 18 19 20 21 20 19 19 19 20 20 21 21 21 22 22 22 21 21 21 21 21 21 20 20 20 19 19 19 19 19 18 18 18
20 19 20 21 22 22 22 20 19 17 16 16 19 21 20 19 19 19 20 20 20 21 21 21 21 21 21 21 21 21 21 20 20 20 20 19 19 19 19 19 18 18 18 18
20 18 20 21 21 21 21 21 19 18 18 17 18 20 20 19 18 18 19 20 20 20 21 20 21 21 21 21 21 21 20 20 20 20 20 19 19 19 19 18 18 18 18 18
19 19 19 20 21 21 21 21 20 20 19 19 20 19 20 19 19 19 19 20 20 20 20 20 20 21 20 20 20 20 20 20 19 19 19 19 19 18 18 18 18 18 18 17
17 19 19 20 21 21 21 21 21 21 20 20 20 19 19 19 19 19 19 19 19 20 20 20 20 20 20 20 20 20 19 19 19 19 19 19 19 18 18 18 18 18 18 17
16 17 18 19 20 20 20 20 20 20 20 20 20 20 19 18 18 19 19 19 20 20 20 20 20 20 20 20 20 19 19 19 19 19 19 19 18 18 18 18 17 17 17 17
15 16 15 17 19 20 20 20 21 20 20 19 19 19 18 19 20 20 20 21 21 20 20 20 20 20 20 20 19 19 19 18 18 18 18 18 18 18 18 17 17 17 17 17
14 15 14 15 17 19 20 20 20 20 20 19 19 19 19 19 19 19 20 21 21 21 21 20 20 20 20 20 19 19 18 18 18 18 18 18 18 18 17 17 17 17 17 17
13 14 15 15 18 18 19 20 20 20 20 19 18 18 18 18 18 19 21 20 20 20 20 20 20 19 19 19 19 18 18 18 18 18 18 17 17 17 17 17 17 16 16 16
15 14 15 15 17 17 18 19 20 20 19 19 19 18 18 18 19 21 21 20 20 20 20 19 19 19 19 19 18 18 18 18 17 17 17 17 17 17 16 16 16 16 16 16
15 15 15 14 16 17 18 18 18 18 19 19 19 19 19 19 20 20 20 20 20 20 19 19 19 19 18 18 18 18 17 17 17 17 17 16 16 16 16 16 15 15 15 15
13 14 13 14 16 16 17 17 19 19 19 19 19 19 19 19 19 19 20 20 19 19 19 19 19 18 18 18 17 17 17 17 16 16 16 16 16 16 15 15 15 15 15 15
14 12 12 13 15 16 17 18 18 19 19 19 19 19 19 19 19 19 19 19 19 19 19 18 18 18 18 17 17 17 17 16 16 16 16 16 15 15 15 15 15 15 14 14
13 13 13 14 14 15 17 17 18 18 19 18 18 19 19 19 19 19 19 19 19 18 18 18 18 18 17 17 17 16 16 16 16 15 15 15 15 15 14 14 14 14 14 14
12 13 13 14 15 14 16 17 17 18 18 18 18 18 18 18 19 19 18 18 18 18 18 18 17 17 17 16 16 16 16 15 15 15 15 14 14 14 14 14 14 14 14 14
Wind_Speed
3 4 3 6 7 5 3 3 4 5 3 4 5 4 4 7 9 9 8 8 9 9 7 6 6 7 7 6 6 6 6 5 4 2 3 2 2 2 2 2 3 3 3 3
4 3 6 5 4 3 3 3 4 5 1 4 2 3 2 6 9 10 10 10 10 8 5 6 6 7 8 8 8 7 6 5 5 4 3 3 3 2 2 2 2 3 3 3
6 6 3 4 3 2 3 5 5 4 2 3 2 3 3 3 4 5 6 7 8 10 9 8 8 8 8 9 9 9 7 7 6 5 3 2 2 1 0 1 1 1 3 3
5 5 3 3 4 4 5 6 6 3 3 1 2 2 6 3 4 6 7 7 9 9 9 9 9 9 10 10 8 7 7 7 6 6 5 5 4 3 3 2 1 1 1 2
6 4 3 4 5 6 5 1 3 2 4 2 2 2 7 1 4 8 9 9 9 9 9 10 11 11 9 8 7 6 6 6 5 6 6 5 4 3 2 2 2 1 1 2
5 3 4 5 2 5 4 6 7 6 5 1 2 3 6 4 6 6 7 8 9 8 9 8 7 7 6 7 6 6 6 5 5 6 6 6 6 5 3 3 3 2 1 1
4 4 2 2 2 3 5 6 4 5 4 5 2 2 7 6 5 6 6 6 6 5 6 7 8 8 7 8 8 7 7 7 6 6 6 6 7 6 6 5 4 3 2 2
3 6 4 2 5 5 4 8 7 5 5 5 1 4 7 4 3 2 3 3 3 3 4 5 7 8 7 8 8 8 8 8 8 8 7 6 6 6 5 5 5 5 4 3
6 6 4 1 2 7 6 3 5 7 3 1 4 6 7 3 3 1 0 1 1 2 4 4 5 5 6 6 7 8 9 8 8 9 7 6 6 6 5 5 5 4 4 3
8 4 4 3 4 5 5 8 6 6 6 3 4 4 5 6 5 2 1 2 1 1 2 3 4 4 5 6 5 5 7 8 8 8 8 7 7 6 6 5 5 5 4 3
6 5 3 2 2 3 4 5 6 5 5 6 4 6 5 7 5 4 4 3 3 2 2 2 2 3 4 4 4 5 5 5 6 7 7 6 6 6 6 6 6 5 5 5
4 5 2 4 4 3 5 6 7 5 4 4 4 7 4 4 4 4 3 2 2 1 1 1 2 2 2 3 3 4 4 5 5 5 5 6 5 5 5 5 5 5 4 4
5 6 2 5 4 2 2 3 4 6 6 5 5 7 2 1 1 2 2 2 2 1 1 2 2 2 1 2 2 3 3 4 4 4 5 5 5 5 4 4 4 4 4 4
5 5 7 10 8 5 3 2 4 6 5 5 7 8 6 3 3 3 2 2 2 2 2 2 1 0 0 1 1 1 1 2 3 3 4 4 4 5 5 4 3 4 4 4
5 4 5 5 4 4 4 4 6 6 8 9 8 8 9 8 7 5 4 3 2 2 1 1 1 1 1 1 0 1 1 1 2 3 3 4 4 4 4 4 5 5 4 4
3 4 3 2 2 3 3 5 7 6 5 6 4 7 7 4 3 4 5 5 4 4 3 2 2 1 2 1 1 1 1 1 2 2 2 2 2 3 4 5 5 5 4 4
1 5 4 3 2 2 4 8 8 5 5 7 8 9 3 3 7 8 8 8 7 6 5 4 4 3 3 2 2 2 1 1 2 2 1 2 2 3 3 4 4 5 5 4
5 5 4 3 3 5 9 4 6 6 5 5 5 4 5 7 5 4 6 8 7 6 6 5 4 3 3 2 2 1 2 2 2 1 1 1 1 2 2 2 4 4 3 4
6 7 5 4 4 5 6 2 4 5 4 4 4 3 2 2 3 2 4 6 7 6 6 5 4 3 3 3 3 3 2 2 2 1 1 2 2 2 3 3 3 3 3 4
4 5 5 4 5 7 7 4 2 4 3 3 3 3 2 4 2 6 5 4 4 3 3 3 3 2 3 3 3 3 2 2 2 3 3 2 2 3 4 4 3 2 3 4
3 3 4 4 4 6 5 4 3 5 6 4 3 4 6 6 6 4 3 3 3 3 3 4 4 3 3 3 4 3 2 3 3 2 2 2 2 3 3 3 3 3 3 3
4 4 4 4 3 6 3 2 4 5 4 2 3 4 5 4 1 1 2 3 4 4 4 4 4 2 2 3 4 4 3 3 2 1 1 2 2 2 2 2 2 2 3 3
4 6 5 6 6 4 2 3 3 2 3 3 3 3 4 3 2 2 2 3 4 4 4 3 4 3 1 2 3 4 4 2 1 1 1 1 1 1 1 2 2 2 3 3
2 2 3 2 4 4 4 3 3 2 2 4 3 2 3 3 3 3 3 3 3 3 4 4 4 3 2 2 3 3 3 3 3 2 2 1 1 1 1 1 1 2 2 3
4 2 2 3 4 4 4 4 4 4 4 4 3 1 2 4 3 3 4 4 4 3 2 4 4 4 4 3 2 2 2 3 3 2 2 1 1 2 1 1 1 2 3 3
4 5 4 5 5 4 5 5 3 3 4 3 3 3 3 1 3 4 4 3 3 3 3 3 3 3 3 3 3 2 3 3 3 2 1 1 1 1 1 1 1 2 1 1
Wind_Direction
50 81 196 209 192 193 189 205 259 261 220 173 207 236 221 179 187 197 202 206 207 213 214 201 195 189 186 186 190 193 189 182 165 166 176 185 211 214 209 210 208 205 201 185
37 271 233 191 175 170 187 241 267 288 189 168 204 261 242 187 200 201 202 206 209 212 205 202 200 196 192 191 196 194 193 182 183 190 183 180 176 189 202 214 194 197 194 188
195 237 212 172 188 191 223 200 227 235 22 56 92 329 275 232 218 213 212 208 208 208 206 205 200 201 195 196 197 201 195 189 193 188 159 140 109 77 111 211 217 208 195 195
226 251 199 204 221 181 255 220 198 184 119 322 94 276 288 250 237 229 226 217 212 210 205 205 201 199 202 205 197 197 194 191 189 177 175 178 184 192 205 197 208 233 198 201
231 209 194 231 229 180 220 143 134 127 124 63 26 156 291 305 247 245 232 225 219 209 205 207 204 202 201 196 188 187 181 184 183 177 179 181 188 189 180 170 188 221 229 210
240 232 204 216 232 163 149 71 60 52 75 40 257 168 281 250 235 248 231 223 218 208 206 206 201 192 190 182 177 177 175 189 185 179 183 182 185 183 175 183 195 217 226 221
300 292 252 169 73 47 95 92 38 7 14 254 268 193 249 257 248 233 227 221 213 202 199 196 189 187 189 186 184 183 181 195 192 185 190 192 191 187 193 197 200 204 209 218
204 275 252 188 177 182 167 141 159 191 218 266 324 229 254 278 282 259 223 205 188 186 186 193 195 190 191 193 189 187 191 199 194 193 199 199 197 196 204 202 200 203 206 210
185 246 289 251 186 144 136 151 157 135 142 209 276 284 302 315 330 340 107 128 182 194 186 186 185 185 189 193 200 200 198 200 200 201 201 204 201 199 203 200 198 200 205 202
165 219 285 297 63 44 127 140 104 124 149 225 281 277 265 278 276 276 210 189 198 191 179 171 172 179 188 193 199 203 203 205 203 200 204 207 205 204 201 191 194 198 202 201
147 168 294 39 133 180 96 98 106 115 148 160 228 266 232 227 233 225 210 195 188 187 180 180 171 181 180 176 179 193 199 202 204 205 205 204 205 205 200 198 204 203 202 198
149 136 209 259 264 202 157 157 146 151 199 172 179 258 272 223 226 212 204 184 176 187 191 161 113 102 125 157 176 194 204 204 208 203 198 202 204 201 204 211 212 201 199 200
132 121 107 335 333 11 109 140 137 125 120 151 175 259 320 354 261 222 199 182 158 126 76 66 65 80 119 144 168 195 207 211 209 192 193 199 203 200 204 211 208 199 200 206
126 127 171 203 218 199 209 194 153 129 148 188 216 243 281 273 246 236 215 194 160 139 124 111 96 22 76 121 153 162 195 202 200 188 190 199 208 207 205 196 195 201 205 211
117 157 201 226 218 177 201 206 185 181 186 186 220 225 246 232 219 210 198 180 156 156 170 192 206 251 309 27 86 138 159 164 169 172 186 204 206 205 201 197 196 192 195 212
90 151 168 255 228 189 223 227 201 206 195 203 215 249 246 227 184 182 187 183 190 202 211 222 225 229 231 203 196 187 190 161 137 153 189 191 181 191 202 205 197 188 186 192
124 134 135 228 284 76 254 231 202 200 203 181 206 232 208 194 202 200 195 194 202 212 214 214 218 220 223 209 185 179 184 143 141 156 165 165 170 185 210 210 195 194 189 184
160 138 142 159 111 214 241 239 192 192 212 200 211 223 204 216 216 205 196 196 206 211 211 211 212 211 204 175 150 132 145 154 156 159 171 175 168 183 194 189 194 196 189 190
169 146 134 143 180 252 288 247 179 180 236 220 210 238 215 115 67 282 226 203 204 207 208 204 202 198 181 177 166 145 152 165 167 193 225 233 208 189 189 198 205 203 196 205
86 109 126 141 164 217 244 267 232 133 257 264 208 210 179 121 169 252 228 199 198 196 186 176 170 164 172 184 163 151 175 186 212 225 233 230 218 203 207 215 214 208 203 213
74 79 143 169 201 247 264 294 112 155 240 265 218 206 187 197 218 221 177 186 186 178 171 160 156 164 181 170 157 160 181 220 246 249 245 240 228 220 221 226 217 197 197 202
166 156 179 158 183 249 291 97 159 224 271 251 220 219 205 216 235 163 164 175 170 165 167 163 156 163 166 166 161 171 210 229 218 202 233 247 243 234 218 203 213 197 188 199
191 187 186 189 209 243 247 218 249 227 249 252 225 242 205 188 198 185 183 179 173 169 172 166 158 152 177 185 171 191 221 209 188 167 235 264 270 275 214 197 204 203 195 205
266 161 150 242 266 281 286 297 311 298 282 280 253 233 193 179 181 175 177 175 168 167 162 158 153 164 201 217 207 211 207 183 173 192 232 243 223 264 277 239 223 218 220 220
240 183 168 248 283 319 310 309 317 337 352 352 350 345 208 166 173 181 178 177 174 167 165 163 167 182 208 215 219 217 194 175 181 201 220 233 226 215 235 252 251 237 232 223
217 186 179 223 227 210 262 292 317 352 355 2 22 9 8 151 175 171 169 175 166 158 151 157 169 182 205 214 221 214 192 180 177 197 226 225 231 233 217 218 309 349 294 270
Height
1492 1498 1504 1502 1500 1501 1504 1509 1511 1505 1498 1502 1505 1505 1502 1502 1504 1506 1507 1509 1511 1512 1514 1516 1518 1520 1522 1524 1525 1528 1529 1530 1532 1533 1535 1536 1537 1538 1539 1540 1541 1542 1542 1543
1498 1501 1494 1493 1496 1498 1503 1510 1509 1502 1497 1500 1505 1505 1501 1501 1501 1502 1504 1506 1507 1509 1512 1514 1516 1518 1519 1522 1523 1525 1527 1529 1530 1532 1533 1535 1536 1537 1538 1539 1540 1541 1541 1542
1499 1494 1489 1492 1496 1500 1502 1507 1506 1505 1501 1501 1505 1510 1504 1501 1501 1502 1503 1504 1505 1506 1509 1511 1513 1515 1517 1519 1521 1523 1526 1527 1529 1531 1532 1533 1535 1536 1537 1538 1539 1540 1540 1541
1494 1489 1489 1492 1494 1497 1505 1495 1497 1501 1510 1517 1512 1527 1509 1503 1502 1500 1500 1501 1502 1504 1506 1508 1510 1512 1514 1516 1519 1522 1524 1526 1527 1529 1530 1531 1532 1533 1535 1536 1537 1538 1539 1540
1493 1487 1489 1492 1490 1491 1495 1491 1496 1502 1511 1520 1517 1525 1517 1505 1504 1499 1497 1497 1498 1500 1503 1505 1506 1508 1511 1514 1517 1519 1521 1523 1525 1527 1528 1529 1530 1531 1533 1534 1535 1536 1537 1538
1486 1483 1484 1484 1483 1485 1489 1495 1502 1510 1518 1531 1522 1526 1522 1509 1501 1495 1493 1494 1494 1496 1499 1501 1504 1507 1509 1512 1514 1517 1519 1521 1523 1524 1526 1527 1528 1529 1530 1532 1533 1534 1535 1536
1491 1485 1481 1481 1486 1488 1492 1509 1528 1531 1538 1536 1521 1524 1518 1497 1492 1491 1490 1491 1491 1494 1496 1498 1501 1503 1506 1508 1511 1513 1516 1518 1520 1521 1523 1524 1526 1527 1528 1529 1531 1532 1533 1533
1502 1501 1484 1481 1484 1491 1495 1504 1527 1538 1541 1534 1523 1524 1507 1492 1489 1488 1488 1488 1489 1491 1493 1496 1498 1501 1503 1506 1508 1510 1512 1514 1517 1518 1520 1521 1523 1524 1526 1527 1528 1529 1530 1531
1501 1499 1481 1478 1478 1483 1496 1504 1504 1523 1529 1534 1528 1516 1501 1490 1489 1487 1487 1487 1488 1489 1491 1493 1496 1498 1501 1503 1505 1507 1509 1511 1513 1515 1517 1518 1520 1521 1523 1524 1525 1526 1528 1528
1487 1496 1485 1480 1480 1483 1487 1498 1512 1523 1536 1538 1527 1521 1513 1497 1492 1488 1488 1488 1488 1489 1490 1492 1494 1496 1498 1500 1503 1504 1506 1507 1509 1511 1513 1515 1516 1518 1520 1521 1522 1524 1524 1526
1482 1494 1492 1487 1489 1492 1494 1500 1510 1521 1522 1534 1537 1523 1493 1491 1488 1488 1487 1487 1488 1489 1490 1491 1493 1495 1497 1499 1500 1502 1503 1505 1506 1508 1510 1511 1513 1515 1517 1518 1519 1521 1522 1522
1482 1493 1501 1493 1484 1483 1486 1493 1504 1515 1522 1526 1529 1517 1485 1485 1484 1485 1486 1487 1487 1488 1490 1491 1492 1493 1495 1497 1498 1500 1501 1502 1503 1505 1506 1508 1510 1512 1513 1515 1516 1518 1519 1519
1481 1494 1507 1504 1498 1489 1489 1491 1496 1505 1518 1527 1527 1511 1484 1483 1483 1483 1484 1485 1487 1488 1489 1490 1491 1493 1494 1495 1496 1498 1499 1500 1501 1502 1504 1505 1507 1509 1510 1512 1513 1515 1516 1516
1475 1491 1499 1505 1499 1492 1491 1491 1494 1501 1515 1520 1513 1501 1487 1485 1484 1483 1483 1484 1486 1487 1489 1490 1491 1492 1493 1494 1495 1496 1496 1497 1498 1500 1501 1503 1504 1506 1507 1508 1510 1511 1513 1513
1475 1488 1488 1486 1482 1484 1486 1487 1490 1493 1497 1503 1498 1495 1485 1481 1480 1481 1482 1484 1486 1487 1488 1489 1490 1491 1492 1492 1493 1494 1494 1495 1496 1497 1498 1499 1501 1503 1504 1505 1506 1507 1509 1510
1477 1485 1486 1486 1482 1483 1485 1483 1485 1486 1487 1489 1489 1488 1477 1477 1479 1480 1481 1482 1484 1485 1487 1488 1489 1490 1490 1491 1491 1492 1493 1493 1494 1494 1495 1496 1498 1499 1500 1501 1502 1503 1504 1505
1482 1486 1492 1495 1486 1485 1492 1482 1481 1482 1480 1482 1486 1480 1475 1477 1476 1476 1478 1480 1481 1483 1485 1486 1487 1488 1489 1489 1490 1490 1492 1492 1492 1492 1493 1494 1494 1495 1496 1497 1498 1499 1500 1501
1481 1486 1494 1497 1493 1501 1484 1470 1471 1474 1474 1474 1473 1472 1472 1472 1472 1473 1475 1476 1478 1480 1482 1484 1485 1486 1487 1487 1489 1489 1490 1490 1490 1490 1491 1491 1491 1492 1493 1493 1494 1495 1497 1498
1474 1483 1494 1500 1500 1492 1478 1470 1470 1473 1475 1470 1470 1470 1470 1471 1472 1473 1473 1474 1476 1478 1479 1481 1483 1484 1485 1486 1486 1487 1487 1488 1488 1488 1488 1489 1489 1489 1490 1490 1491 1492 1493 1494
1475 1478 1489 1497 1496 1497 1478 1465 1464 1469 1476 1467 1467 1468 1469 1470 1476 1472 1470 1472 1474 1476 1478 1479 1481 1482 1483 1484 1485 1485 1485 1485 1485 1486 1486 1487 1487 1487 1487 1488 1489 1489 1490 1491
1481 1485 1489 1493 1491 1484 1469 1464 1464 1479 1477 1465 1464 1465 1466 1467 1467 1466 1468 1469 1472 1474 1476 1478 1479 1480 1481 1482 1482 1483 1483 1483 1484 1484 1484 1484 1484 1484 1485 1486 1486 1486 1487 1488
1481 1485 1488 1492 1491 1485 1466 1465 1469 1470 1464 1463 1462 1463 1463 1463 1464 1464 1465 1467 1469 1471 1473 1475 1476 1477 1479 1479 1480 1480 1481 1482 1482 1482 1482 1482 1482 1482 1482 1483 1483 1483 1484 1484
1477 1477 1478 1480 1478 1468 1465 1464 1464 1464 1462 1461 1461 1460 1461 1461 1462 1462 1464 1465 1467 1469 1471 1472 1474 1475 1477 1478 1478 1478 1479 1480 1480 1480 1480 1480 1480 1480 1480 1480 1480 1481 1481 1481
1472 1471 1473 1473 1468 1465 1464 1463 1462 1461 1460 1459 1459 1458 1458 1459 1460 1461 1462 1464 1465 1466 1468 1470 1471 1472 1474 1475 1476 1477 1477 1477 1478 1477 1477 1477 1477 1477 1477 1477 1478 1478 1477 1477
1470 1469 1471 1471 1466 1463 1462 1461 1460 1459 1458 1457 1456 1456 1457 1457 1458 1459 1460 1461 1463 1464 1466 1467 1469 1470 1472 1473 1474 1474 1474 1475 1475 1475 1475 1475 1475 1474 1474 1474 1474 1474 1474 1474
1466 1467 1468 1468 1463 1464 1461 1460 1459 1458 1457 1456 1455 1455 1456 1456 1456 1457 1459 1460 1461 1462 1464 1465 1467 1468 1469 1470 1471 1472 1472 1472 1472 1472 1472 1472 1472 1472 1471 1471 1471 1471 1471 1471